Location: La Brionne
(46.1728°N, 1.7849°E)
Time: 08:36:12
(UTC+00:00)

Cosmos 1908 - Pass Details

Date: 16 June 2021
Orbit: 509 x 530 km, 82.5° (Epoch: 31 July)

Event Time Altitude Azimuth Distance (km) Brightness Sun altitude
Rises 20:45:43 0° 359° (N) 2,675 7.7 -8.5°
Reaches altitude 10° 20:48:02 10° 9° (N) 1,777 6.5 -8.7°
Maximum altitude 20:51:36 33° 75° (ENE) 892 4.2 -9.1°
Enters shadow 20:54:35 13° 137° (SE) 1,562 4.9 -9.5°
